When you browse on this site, cookies collect data to enhance your experience and personalize the content and advertising you see.
Visit our Privacy Policy to learn more. By continuing to use the site, you agree to this use of cookies and data.
  • In Austria
  • List of Countries
  • For 7 days
  • Water Temperature
  • Satellite Maps
  • Weather Map
  • News
  • Weather Widgets
  • user-avatar
    Login

    Hourly Weather Strongsville

    Today, 21 July, Sunday

    Time Temperature Precipitation Wind Pressure Humidity
    00:00 +26°C° 0 mm 4 mps 734 mmHg 90%
    01:00 +26°C° 0 mm 3 mps 734 mmHg 92%
    02:00 +26°C° 1.2 mm 3 mps 734 mmHg 93%
    03:00 +26°C° 1.2 mm 3 mps 734 mmHg 94%
    04:00 +26°C° 1.2 mm 3 mps 734 mmHg 95%
    05:00 +26°C° 0.4 mm 3 mps 734 mmHg 95%
    06:00 +26°C° 0.4 mm 2 mps 735 mmHg 95%
    07:00 +26°C° 0 mm 1 mps 736 mmHg 93%
    08:00 +27°C° 0 mm 1 mps 736 mmHg 89%
    09:00 +28°C° 0 mm 1 mps 735 mmHg 84%
    10:00 +29°C° 0 mm 2 mps 735 mmHg 80%
    11:00 +30°C° 0 mm 2 mps 735 mmHg 78%
    12:00 +30°C° 0 mm 2 mps 735 mmHg 75%
    13:00 +31°C° 0 mm 3 mps 735 mmHg 73%
    14:00 +30°C° 0.7 mm 3 mps 735 mmHg 75%
    15:00 +30°C° 0.7 mm 3 mps 735 mmHg 77%
    16:00 +29°C° 0.7 mm 3 mps 735 mmHg 79%
    17:00 +28°C° 0.8 mm 3 mps 735 mmHg 81%
    18:00 +27°C° 0.8 mm 4 mps 735 mmHg 83%
    19:00 +26°C° 0.8 mm 4 mps 735 mmHg 85%
    20:00 +25°C° 0.8 mm 4 mps 735 mmHg 86%
    21:00 +24°C° 0.8 mm 3 mps 735 mmHg 87%
    22:00 +22°C° 0.8 mm 3 mps 735 mmHg 88%
    23:00 +21°C° 1.1 mm 3 mps 734 mmHg 89%

    Tomorrow, 22 July, Monday

    Time Temperature Precipitation Wind Pressure Humidity
    00:00 +21°C° 1.1 mm 3 mps 734 mmHg 90%
    01:00 +21°C° 1.1 mm 3 mps 734 mmHg 91%
    02:00 +20°C° 0.4 mm 3 mps 734 mmHg 91%
    03:00 +20°C° 0.4 mm 3 mps 734 mmHg 91%
    04:00 +20°C° 0.4 mm 4 mps 733 mmHg 90%
    05:00 +20°C° 0.4 mm 4 mps 733 mmHg 90%
    06:00 +20°C° 0.4 mm 4 mps 734 mmHg 90%
    07:00 +19°C° 0.4 mm 4 mps 734 mmHg 90%
    08:00 +19°C° 1.1 mm 3 mps 734 mmHg 91%
    09:00 +19°C° 1.1 mm 3 mps 734 mmHg 92%
    10:00 +18°C° 1.1 mm 3 mps 734 mmHg 93%
    11:00 +19°C° 0.2 mm 3 mps 734 mmHg 91%
    12:00 +19°C° 0.2 mm 3 mps 734 mmHg 88%
    13:00 +20°C° 0.2 mm 3 mps 734 mmHg 86%
    14:00 +21°C° 0 mm 3 mps 734 mmHg 84%
    15:00 +21°C° 0 mm 4 mps 734 mmHg 83%
    16:00 +22°C° 0 mm 4 mps 734 mmHg 81%
    17:00 +21°C° 0.1 mm 4 mps 734 mmHg 82%
    18:00 +21°C° 0.1 mm 4 mps 735 mmHg 83%
    19:00 +20°C° 0.1 mm 4 mps 735 mmHg 83%
    20:00 +20°C° 0 mm 4 mps 735 mmHg 83%
    21:00 +19°C° 0 mm 4 mps 735 mmHg 83%
    22:00 +17°C° 0 mm 5 mps 736 mmHg 82%
    23:00 +18°C° 0 mm 4 mps 736 mmHg 80%

    Day after tomorrow, 23 July, Tuesday

    Time Temperature Precipitation Wind Pressure Humidity
    00:00 +17°C° 0 mm 4 mps 736 mmHg 78%
    01:00 +17°C° 0 mm 3 mps 736 mmHg 75%
    02:00 +17°C° 0 mm 3 mps 736 mmHg 75%
    03:00 +16°C° 0 mm 3 mps 736 mmHg 74%
    04:00 +16°C° 0 mm 3 mps 736 mmHg 73%
    05:00 +17°C° 0 mm 3 mps 736 mmHg 75%
    06:00 +18°C° 0 mm 3 mps 736 mmHg 77%
    07:00 +18°C° 0 mm 3 mps 737 mmHg 80%
    08:00 +19°C° 0 mm 3 mps 737 mmHg 75%
    09:00 +21°C° 0 mm 4 mps 737 mmHg 69%
    10:00 +22°C° 0 mm 4 mps 737 mmHg 64%
    11:00 +22°C° 0 mm 4 mps 737 mmHg 63%
    12:00 +22°C° 0 mm 4 mps 737 mmHg 62%
    13:00 +23°C° 0 mm 4 mps 737 mmHg 60%
    14:00 +23°C° 0 mm 4 mps 737 mmHg 61%
    15:00 +23°C° 0 mm 4 mps 737 mmHg 63%
    16:00 +24°C° 0 mm 3 mps 736 mmHg 64%
    17:00 +22°C° 0 mm 3 mps 737 mmHg 68%
    18:00 +21°C° 0 mm 3 mps 737 mmHg 72%
    19:00 +20°C° 0 mm 2 mps 737 mmHg 76%
    20:00 +19°C° 0 mm 2 mps 737 mmHg 76%
    21:00 +18°C° 0 mm 2 mps 737 mmHg 76%
    22:00 +17°C° 0 mm 2 mps 738 mmHg 76%
    23:00 +17°C° 0 mm 2 mps 738 mmHg 78%

    24 July, Wednesday

    Time Temperature Precipitation Wind Pressure Humidity
    00:00 +16°C° 0 mm 2 mps 738 mmHg 80%
    01:00 +16°C° 0 mm 2 mps 738 mmHg 82%
    02:00 +15°C° 0 mm 2 mps 738 mmHg 83%
    03:00 +15°C° 0 mm 2 mps 738 mmHg 84%
    04:00 +15°C° 0 mm 2 mps 738 mmHg 86%
    05:00 +16°C° 0 mm 1 mps 738 mmHg 83%
    06:00 +18°C° 0 mm 1 mps 739 mmHg 81%
    07:00 +19°C° 0 mm 1 mps 739 mmHg 78%
    08:00 +20°C° 0 mm 2 mps 739 mmHg 71%
    09:00 +21°C° 0 mm 2 mps 740 mmHg 64%
    10:00 +24°C° 0 mm 3 mps 740 mmHg 57%
    11:00 +24°C° 0 mm 3 mps 740 mmHg 56%
    12:00 +25°C° 0 mm 3 mps 740 mmHg 55%
    13:00 +25°C° 0 mm 4 mps 740 mmHg 54%
    14:00 +25°C° 0 mm 3 mps 739 mmHg 55%
    15:00 +25°C° 0 mm 3 mps 739 mmHg 56%
    16:00 +25°C° 0 mm 3 mps 739 mmHg 57%
    17:00 +24°C° 0 mm 2 mps 739 mmHg 62%
    18:00 +23°C° 0 mm 2 mps 739 mmHg 67%
    19:00 +21°C° 0 mm 1 mps 739 mmHg 71%
    20:00 +20°C° 0 mm 1 mps 739 mmHg 73%
    21:00 +18°C° 0 mm 1 mps 739 mmHg 75%
    22:00 +15°C° 0 mm 0 mps 739 mmHg 77%
    23:00 +16°C° 0 mm 1 mps 739 mmHg 76%

    25 July, Thursday

    Time Temperature Precipitation Wind Pressure Humidity
    00:00 +16°C° 0 mm 1 mps 739 mmHg 74%
    01:00 +15°C° 0 mm 2 mps 739 mmHg 73%
    02:00 +15°C° 0 mm 2 mps 740 mmHg 72%
    03:00 +15°C° 0 mm 2 mps 740 mmHg 72%
    04:00 +15°C° 0 mm 2 mps 740 mmHg 71%
    05:00 +15°C° 0 mm 2 mps 740 mmHg 72%
    06:00 +16°C° 0 mm 2 mps 740 mmHg 73%
    07:00 +18°C° 0 mm 1 mps 741 mmHg 74%
    08:00 +20°C° 0 mm 1 mps 741 mmHg 70%
    09:00 +22°C° 0 mm 1 mps 741 mmHg 67%
    10:00 +24°C° 0 mm 1 mps 742 mmHg 64%
    11:00 +25°C° 0 mm 2 mps 741 mmHg 62%
    12:00 +26°C° 0 mm 2 mps 741 mmHg 60%
    13:00 +27°C° 0 mm 2 mps 741 mmHg 58%
    14:00 +27°C° 0 mm 2 mps 741 mmHg 58%
    15:00 +27°C° 0 mm 2 mps 741 mmHg 57%
    16:00 +27°C° 0 mm 2 mps 741 mmHg 57%
    17:00 +26°C° 0 mm 1 mps 741 mmHg 62%
    18:00 +25°C° 0 mm 1 mps 741 mmHg 68%
    19:00 +24°C° 0 mm 1 mps 741 mmHg 73%
    20:00 +22°C° 0 mm 1 mps 741 mmHg 76%
    21:00 +21°C° 0 mm 1 mps 742 mmHg 78%
    22:00 +18°C° 0 mm 0 mps 742 mmHg 81%
    23:00 +19°C° 0 mm 1 mps 742 mmHg 82%

    26 July, Friday

    Time Temperature Precipitation Wind Pressure Humidity
    00:00 +19°C° 0 mm 1 mps 742 mmHg 83%
    01:00 +18°C° 0 mm 1 mps 742 mmHg 84%
    02:00 +17°C° 0 mm 2 mps 742 mmHg 85%
    03:00 +17°C° 0 mm 2 mps 742 mmHg 85%
    04:00 +16°C° 0 mm 2 mps 742 mmHg 86%
    05:00 +17°C° 0 mm 2 mps 742 mmHg 84%
    06:00 +18°C° 0 mm 2 mps 742 mmHg 83%
    07:00 +18°C° 0 mm 2 mps 743 mmHg 82%
    08:00 +20°C° 0 mm 2 mps 743 mmHg 76%
    09:00 +23°C° 0 mm 2 mps 743 mmHg 70%
    10:00 +25°C° 0 mm 2 mps 744 mmHg 63%
    11:00 +26°C° 0 mm 2 mps 743 mmHg 61%
    12:00 +27°C° 0 mm 2 mps 743 mmHg 58%
    13:00 +28°C° 0 mm 2 mps 743 mmHg 55%
    14:00 +28°C° 0 mm 2 mps 743 mmHg 56%
    15:00 +28°C° 0 mm 2 mps 743 mmHg 57%
    16:00 +29°C° 0 mm 2 mps 743 mmHg 59%
    17:00 +27°C° 0 mm 2 mps 742 mmHg 64%
    18:00 +26°C° 0 mm 1 mps 742 mmHg 69%
    19:00 +25°C° 0 mm 1 mps 742 mmHg 75%
    20:00 +24°C° 0 mm 1 mps 742 mmHg 78%
    21:00 +23°C° 0 mm 2 mps 743 mmHg 80%
    22:00 +20°C° 0 mm 2 mps 743 mmHg 83%
    23:00 +20°C° 0 mm 2 mps 743 mmHg 84%
    Show more